Theta_e
330 330 329 332 332 330 328 327 333 336 342 337 335 336 335 334 334 335 340 344 351 349 353 351 351 348 345 344 345 343 342 342 340 338 336 337 337 337 338 336 335 335 335 334
333 331 329 329 330 332 332 330 329 330 338 336 336 336 336 334 333 335 336 334 343 352 351 351 351 348 345 342 341 342 342 341 339 338 336 336 337 337 337 336 335 336 334 333
332 331 331 332 333 332 331 331 331 331 336 338 339 338 337 334 333 335 336 337 337 339 349 352 352 349 345 341 339 341 341 339 338 336 336 336 337 337 339 338 337 334 332 334
331 334 334 332 333 334 337 338 336 336 338 336 336 333 332 331 332 333 334 335 336 337 352 353 351 348 344 342 340 337 337 337 336 336 336 336 337 338 337 337 335 333 333 332
340 333 333 335 333 338 339 339 337 337 339 336 334 339 339 338 334 334 338 339 339 340 354 353 349 346 344 342 338 337 336 336 336 336 336 336 338 338 338 337 335 334 333 332
342 344 348 335 338 337 339 342 337 335 337 340 333 345 342 338 338 338 338 340 340 341 350 350 348 345 343 341 340 341 336 338 337 338 338 339 339 338 338 337 335 334 334 327
341 344 341 338 340 336 341 339 337 335 333 336 338 340 340 337 338 337 337 341 343 343 352 350 348 346 342 341 340 338 338 339 339 339 339 338 338 338 339 336 336 333 328 331
340 341 343 339 340 346 341 339 339 339 337 335 334 333 334 332 340 338 337 343 344 351 352 350 347 345 341 341 340 339 340 340 340 340 340 339 339 339 338 337 334 329 331 331
350 348 340 338 336 334 333 335 335 334 333 334 333 334 333 333 331 337 338 344 346 351 346 343 343 342 336 327 334 337 343 342 342 341 340 341 340 338 335 331 330 327 330 330
344 341 339 338 334 332 333 335 334 333 332 332 334 333 332 334 334 341 343 341 338 335 332 330 330 334 332 330 331 327 327 332 328 326 341 340 337 334 333 332 331 330 328 326
340 338 339 334 332 334 334 331 331 333 332 332 333 337 339 336 342 341 341 340 339 336 336 338 333 332 331 329 328 327 326 325 323 339 338 337 335 332 330 324 324 324 321 321
337 337 336 334 330 327 327 327 326 326 330 332 333 339 342 345 340 338 337 339 337 333 332 332 335 331 329 326 324 327 326 327 337 337 337 334 329 326 322 322 320 319 318 318
332 333 330 328 328 324 324 325 324 324 324 327 328 331 341 342 341 339 335 337 337 334 332 330 329 328 327 327 326 331 338 336 334 331 330 330 324 322 318 316 317 318 315 314
320 323 322 323 322 322 321 322 323 323 323 323 324 326 335 341 340 335 334 335 335 333 331 330 329 333 336 337 336 335 334 332 330 329 330 330 329 327 324 320 318 317 315 313
321 321 322 322 322 323 323 323 323 322 322 321 323 323 337 338 334 335 337 335 333 331 331 331 337 336 335 333 331 332 332 330 329 329 327 325 323 322 321 321 320 318 315 313
322 323 324 324 324 322 321 321 321 321 321 322 323 323 325 335 336 334 335 334 333 336 335 336 333 332 331 331 330 330 328 324 325 327 324 323 322 320 320 318 317 315 313 311
321 322 320 320 320 320 320 319 318 317 318 321 323 324 326 333 335 335 335 333 333 333 331 331 325 320 329 329 330 329 328 324 324 324 322 321 319 317 317 317 317 313 310 308
320 319 319 319 319 319 318 318 317 318 317 318 323 327 335 333 335 335 333 329 330 330 326 327 330 330 330 329 329 326 325 322 324 322 321 319 319 318 318 316 315 311 309 307
321 321 320 320 319 318 318 319 319 319 319 319 320 329 332 331 328 328 330 328 323 327 328 326 322 324 327 328 325 325 323 323 322 321 319 317 317 316 315 315 314 312 310 308
321 320 320 320 320 321 319 320 320 320 320 320 322 333 331 326 323 322 322 323 326 325 321 323 325 327 328 327 324 320 318 317 314 314 314 313 313 312 311 312 311 309 310 309
321 321 322 322 322 321 320 321 322 324 327 327 330 328 327 328 329 328 327 324 323 327 326 324 323 325 325 322 320 318 316 315 315 315 314 313 312 310 310 310 308 307 307 306
322 324 324 322 324 324 323 324 324 321 320 326 321 320 325 326 325 323 321 323 320 321 321 321 322 322 320 319 316 315 314 315 314 313 311 311 309 308 307 308 307 306 306 305
323 323 322 323 323 322 323 321 323 322 317 325 323 324 323 322 322 321 319 319 319 317 316 317 316 317 315 314 312 311 311 311 312 311 309 308 307 307 306 307 307 306 304 303
320 322 323 322 322 322 323 323 323 323 323 323 322 322 322 322 320 319 320 316 316 314 314 313 312 311 309 308 307 307 308 309 307 307 307 306 306 306 306 306 305 304 303 302
320 322 322 321 324 323 322 321 321 322 322 322 321 319 316 317 316 315 315 314 313 312 312 311 310 309 309 309 307 307 307 306 306 305 304 304 305 305 305 305 304 304 303 302
321 321 320 318 318 319 320 321 320 320 320 321 322 319 318 316 315 314 314 313 313 312 311 310 310 309 309 308 306 306 307 306 305 304 303 303 303 303 303 303 303 303 302 301
317 316 316 317 317 319 318 318 318 319 318 320 320 320 318 318 316 315 313 313 313 312 312 310 310 309 307 306 306 306 306 306 305 305 303 302 301 301 301 302 302 302 301 301
Wind_Speed
8 7 5 8 8 8 8 8 7 5 11 11 12 10 10 8 6 4 4 7 9 14 21 30 31 35 37 35 37 40 38 37 35 29 25 22 19 17 17 16 16 15 14 13
4 3 6 6 10 17 17 11 8 7 7 16 15 7 8 8 8 6 5 7 7 9 15 23 30 34 39 38 40 40 37 37 35 31 28 23 21 21 21 18 17 15 14 12
5 2 4 6 5 5 7 13 11 10 8 9 8 7 7 8 8 5 3 4 5 5 9 25 31 33 35 27 28 37 39 37 34 33 29 27 26 23 21 21 18 15 14 12
4 4 7 6 6 3 15 14 14 9 13 16 11 10 9 9 10 9 7 7 5 5 8 25 28 32 37 43 45 37 37 31 30 29 28 28 27 24 22 20 18 15 17 17
4 5 4 5 8 4 5 3 6 16 9 14 16 12 8 2 7 8 8 3 4 7 16 26 32 36 36 38 39 34 32 31 30 28 29 28 25 22 21 20 19 18 17 16
4 5 1 5 4 6 2 4 2 14 14 7 6 5 3 7 7 6 6 5 3 6 14 26 27 34 35 32 28 26 30 35 30 29 27 25 23 24 24 23 23 20 18 13
5 4 7 9 16 5 6 6 3 7 11 9 6 6 6 9 6 7 8 10 5 3 17 24 28 32 30 29 28 34 34 30 28 27 26 27 27 27 26 24 22 17 13 14
3 4 4 20 12 5 3 6 9 7 3 10 7 5 6 8 2 8 8 7 8 5 18 25 34 35 28 28 33 33 26 24 24 26 28 30 30 25 25 22 10 13 20 14
2 5 5 10 6 14 15 9 9 8 8 8 8 7 6 5 5 5 8 9 10 13 24 27 21 22 24 25 32 34 17 17 20 24 27 27 23 18 9 3 3 24 21 11
2 5 4 6 11 14 14 12 7 8 6 6 4 7 7 7 7 6 11 20 31 31 26 21 19 26 21 15 22 28 32 14 14 14 7 6 7 10 6 5 8 10 2 7
4 7 5 6 5 4 8 12 16 12 8 9 10 8 5 4 8 5 8 13 21 23 21 14 6 10 4 8 11 17 17 16 15 14 18 18 10 7 8 9 3 2 5 5
3 1 4 6 9 8 9 8 9 9 12 9 7 5 8 10 10 10 10 14 17 20 25 17 11 9 10 5 13 22 21 23 18 8 10 8 11 8 7 6 5 4 5 3
7 14 10 12 5 7 5 7 5 6 9 9 10 6 2 9 14 17 16 13 16 17 16 15 17 20 18 21 23 24 14 9 3 6 8 15 17 18 19 11 8 7 9 10
8 9 7 9 5 8 8 9 10 10 12 10 10 16 9 4 18 19 16 24 25 23 25 24 23 19 20 17 11 6 4 4 8 3 12 17 18 15 15 16 12 9 7 7
10 9 6 3 2 4 5 6 7 7 7 8 14 9 3 5 5 11 17 25 26 27 23 18 17 20 15 11 9 7 5 3 8 13 17 16 15 14 12 13 11 14 9 5
9 7 7 6 6 6 7 8 6 7 8 7 8 11 9 11 11 8 13 17 15 10 12 13 18 10 7 8 10 10 4 2 6 11 16 15 12 12 9 6 6 13 10 4
10 8 8 8 8 9 7 7 7 8 9 9 10 21 14 6 8 7 10 13 14 9 16 16 8 1 14 10 5 5 13 9 14 17 18 13 10 7 5 8 9 16 10 5
11 9 9 8 7 7 7 8 8 11 10 17 22 18 11 8 4 11 16 20 22 24 19 11 5 9 13 4 6 3 12 7 11 14 12 10 8 8 10 8 18 17 13 10
14 12 12 11 10 8 10 10 10 16 21 23 20 4 14 17 17 17 20 16 15 14 13 16 18 15 12 10 7 4 8 8 7 7 11 9 6 5 10 9 9 13 17 13
9 12 15 16 18 15 8 17 20 16 22 24 24 11 15 16 18 15 13 12 12 16 15 14 10 11 9 8 6 3 11 9 9 8 6 6 4 4 2 8 7 5 17 14
12 14 14 14 14 18 18 18 19 13 19 17 8 8 17 18 19 20 16 7 5 9 13 10 8 7 7 3 5 5 10 11 13 13 14 14 9 7 3 3 8 6 9 9
10 10 10 12 12 13 14 10 12 10 13 15 16 13 9 9 13 14 13 13 13 11 8 5 5 8 8 7 4 5 12 11 9 6 6 10 8 6 2 3 9 10 8 9
10 10 11 10 8 7 10 7 4 6 5 10 9 3 3 5 5 5 5 9 11 9 5 8 8 7 7 4 2 8 13 15 9 8 3 8 9 6 2 3 7 6 11 11
12 12 11 7 7 10 7 10 9 7 5 5 5 4 4 5 9 5 5 9 11 12 10 10 8 6 6 0 4 10 14 16 2 4 4 6 10 8 6 4 7 7 9 10
16 19 14 13 6 2 3 4 6 6 4 5 5 10 10 9 8 8 9 10 12 12 9 10 9 7 5 7 10 11 17 3 2 2 2 8 5 8 7 11 7 12 9 11
16 10 8 6 2 0 2 0 3 3 1 2 2 4 4 5 6 6 8 10 11 11 9 11 12 11 11 9 12 13 15 4 2 2 5 9 8 5 10 14 13 12 12 9
9 9 10 10 14 13 8 6 4 5 7 4 5 5 5 3 5 5 5 10 12 13 13 14 16 18 14 12 13 13 8 6 8 11 6 7 7 9 8 8 9 12 13 14
Wind_Direction
221 238 270 220 188 213 218 217 162 190 150 179 157 157 149 139 123 158 188 211 197 169 181 183 181 176 179 177 174 184 187 192 194 204 207 206 209 216 224 235 243 252 263 275
209 240 236 230 212 207 240 225 245 222 197 190 187 129 142 167 169 177 212 242 210 210 176 184 182 175 179 179 177 183 187 188 198 199 200 209 218 220 226 236 242 250 258 273
183 202 330 317 249 221 246 213 199 232 222 137 141 142 149 147 137 146 212 244 275 233 202 183 183 175 175 157 190 188 189 189 190 192 197 210 218 218 226 233 233 247 269 269
153 127 241 238 309 25 84 46 36 40 154 136 138 151 157 162 163 178 200 224 239 292 199 177 173 162 160 169 187 176 174 182 188 192 200 213 217 218 226 234 234 256 263 275
109 192 213 231 264 114 133 11 48 56 83 141 150 88 32 112 148 156 133 175 219 262 183 163 165 168 162 173 177 174 172 195 195 201 211 216 219 222 228 232 242 246 260 279
84 91 12 246 153 106 76 122 72 81 62 39 90 95 187 96 102 108 147 186 227 272 180 167 165 162 164 169 181 182 191 207 206 207 213 218 220 224 229 232 246 244 250 274
124 106 280 337 299 91 60 253 69 109 121 97 78 171 195 139 155 172 196 188 201 235 163 178 161 154 160 170 188 199 205 209 209 211 217 224 229 227 226 235 230 241 263 272
114 97 265 354 312 97 216 62 95 83 44 112 127 103 132 111 230 225 210 184 188 166 163 162 158 160 154 177 197 207 205 207 212 218 223 228 232 233 223 215 223 328 280 282
99 125 114 251 39 360 28 42 23 42 42 51 44 30 15 3 288 255 223 181 163 107 58 63 123 118 82 46 43 6 180 201 214 224 229 228 231 217 205 316 301 251 267 259
130 13 322 345 51 44 11 9 355 336 14 34 39 24 1 351 308 24 90 94 97 85 69 47 55 107 99 81 51 29 347 29 351 314 262 205 148 160 192 221 248 227 134 113
70 35 18 0 353 185 93 65 355 346 358 5 21 3 312 290 101 110 105 113 110 108 100 116 128 109 94 121 108 184 262 319 292 260 257 248 243 193 228 235 270 149 138 138
156 258 106 280 287 54 36 32 45 350 334 347 6 356 85 98 105 115 111 118 106 118 144 162 174 164 167 170 168 214 242 249 252 251 262 239 187 158 163 178 159 136 111 116
170 175 178 233 199 51 22 16 22 334 332 339 341 1 104 127 146 147 140 129 122 135 142 158 190 188 183 219 231 238 211 219 268 262 260 172 161 161 155 154 133 117 114 102
79 96 76 20 17 20 12 356 346 326 318 329 339 344 342 128 130 136 154 161 156 162 182 203 199 184 167 158 161 152 202 244 262 254 162 152 154 171 162 161 157 143 123 100
68 73 105 111 64 18 347 348 359 345 338 338 342 357 334 187 173 145 147 164 165 169 176 172 160 144 147 158 172 172 202 167 156 134 120 120 118 103 101 114 116 120 116 103
67 63 39 42 31 25 24 4 357 335 331 325 331 329 331 258 213 188 164 138 121 100 122 119 136 111 108 142 179 188 222 185 128 145 130 125 122 116 120 130 148 136 137 134
52 31 24 17 8 357 349 343 342 336 331 325 318 319 333 19 170 165 113 113 114 90 103 109 120 185 216 219 202 233 192 156 139 142 140 143 143 147 175 204 171 149 144 112
22 14 5 358 347 338 331 327 322 315 311 314 317 314 27 49 187 114 104 103 99 90 108 122 133 202 235 203 235 154 151 151 162 152 167 168 164 189 211 195 162 165 159 143
359 351 339 326 314 310 315 309 305 311 310 306 307 288 90 95 91 93 103 104 118 134 158 176 185 206 218 216 225 163 177 167 149 158 167 158 177 219 256 227 185 178 170 168
347 343 337 329 320 322 306 310 297 307 304 298 302 155 118 116 120 123 127 127 150 190 186 203 211 177 195 234 216 202 150 142 151 164 176 197 202 307 120 156 155 112 179 182
347 336 330 324 318 320 305 310 307 330 320 308 122 61 123 111 126 134 135 126 99 139 167 162 155 151 166 213 236 234 198 195 212 223 223 213 215 229 211 234 161 169 142 133
330 338 341 349 338 328 325 353 50 27 17 72 63 57 334 90 96 83 72 115 123 110 111 153 166 171 182 203 251 263 317 243 204 232 209 195 165 136 138 177 146 150 157 150
332 348 342 327 349 6 39 19 9 186 161 110 112 109 300 25 64 76 94 119 132 142 132 144 153 158 139 154 293 308 305 317 268 250 230 178 167 168 194 200 179 173 162 160
317 313 306 331 343 21 14 24 36 41 66 65 83 106 33 2 103 127 160 145 150 146 139 146 151 146 150 194 306 288 283 288 345 18 1 192 182 182 203 221 191 158 170 176
284 286 293 304 294 332 357 5 15 36 30 30 39 59 73 68 135 149 150 154 160 156 172 181 189 196 236 286 287 281 298 252 278 325 357 3 213 186 207 211 202 194 207 214
274 271 272 249 195 111 320 148 41 15 312 303 304 340 64 81 92 96 177 179 188 198 224 203 207 229 243 256 274 279 309 226 201 237 271 285 280 283 241 213 210 206 201 205
319 286 317 276 261 222 201 192 187 260 262 244 246 262 261 267 211 197 197 208 225 216 222 230 236 231 231 234 258 267 296 309 277 254 223 219 252 264 286 245 212 209 211 215